Time,TemperatureF,DewpointF,PressureIn,WindDirection,WindDirectionDegrees,WindSpeedMPH,WindSpeedGustMPH,Humidity,HourlyPrecipIn,Conditions,Clouds,dailyrainin,SolarRadiationWatts/m^2,SoftwareType,DateUTC
2013-05-04 00:02:00,42.0,30.0,-100.00,ENE,72,4.0,11.0,63,0.00,,,0.00,0.000000,,2013-05-04 04:02:00,
2013-05-04 00:13:00,42.0,30.0,-100.00,ENE,72,4.0,11.0,63,0.00,,,0.00,0.000000,,2013-05-04 04:13:00,
2013-05-04 00:43:00,41.0,31.0,-100.00,East,81,4.0,11.0,67,0.00,,,0.00,0.000000,,2013-05-04 04:43:00,
2013-05-04 00:53:00,41.0,31.0,-100.00,East,81,4.0,11.0,67,0.00,,,0.00,0.000000,,2013-05-04 04:53:00,
2013-05-04 01:02:00,41.0,31.0,-100.00,East,81,4.0,11.0,67,0.00,,,0.00,0.000000,,2013-05-04 05:02:00,
2013-05-04 01:12:00,41.0,31.0,-100.00,East,81,4.0,11.0,67,0.00,,,0.00,0.000000,,2013-05-04 05:12:00,
2013-05-04 01:32:00,39.0,34.0,-100.00,East,92,4.0,12.0,82,0.00,,,0.00,0.000000,,2013-05-04 05:32:00,
2013-05-04 01:43:00,39.0,34.0,-100.00,East,92,4.0,12.0,82,0.00,,,0.00,0.000000,,2013-05-04 05:43:00,
2013-05-04 01:52:00,39.0,34.0,-100.00,East,92,4.0,12.0,82,0.00,,,0.00,0.000000,,2013-05-04 05:52:00,
2013-05-04 02:01:00,39.0,34.0,-100.00,East,92,4.0,12.0,82,0.00,,,0.00,0.000000,,2013-05-04 06:01:00,
2013-05-04 02:11:00,39.0,34.0,-100.00,East,92,4.0,12.0,82,0.00,,,0.00,0.000000,,2013-05-04 06:11:00,
2013-05-04 02:42:00,38.0,33.0,-100.00,ESE,107,4.0,10.0,82,0.00,,,0.00,0.000000,,2013-05-04 06:42:00,
2013-05-04 02:52:00,38.0,33.0,-100.00,ESE,107,4.0,10.0,82,0.00,,,0.00,0.000000,,2013-05-04 06:52:00,
2013-05-04 03:01:00,38.0,33.0,-100.00,ESE,107,4.0,10.0,82,0.00,,,0.00,0.000000,,2013-05-04 07:01:00,
2013-05-04 03:11:00,38.0,33.0,-100.00,ESE,107,4.0,10.0,82,0.00,,,0.00,0.000000,,2013-05-04 07:11:00,
2013-05-04 03:42:00,37.0,34.0,-100.00,ESE,121,4.0,8.0,89,0.00,,,0.00,0.000000,,2013-05-04 07:42:00,
2013-05-04 03:52:00,37.0,34.0,-100.00,ESE,121,4.0,8.0,89,0.00,,,0.00,0.000000,,2013-05-04 07:52:00,
2013-05-04 04:02:00,37.0,34.0,-100.00,ESE,121,4.0,8.0,89,0.00,,,0.00,0.000000,,2013-05-04 08:02:00,
2013-05-04 04:11:00,37.0,34.0,-100.00,ESE,121,4.0,8.0,89,0.00,,,0.00,0.000000,,2013-05-04 08:11:00,
2013-05-04 04:42:00,37.0,36.0,-100.00,SE,128,6.0,10.0,97,0.00,,,0.00,0.000000,,2013-05-04 08:42:00,
2013-05-04 04:52:00,37.0,36.0,-100.00,SE,128,6.0,10.0,97,0.00,,,0.00,0.000000,,2013-05-04 08:52:00,
2013-05-04 05:02:00,37.0,36.0,-100.00,SE,128,6.0,10.0,97,0.00,,,0.00,0.000000,,2013-05-04 09:02:00,
2013-05-04 05:11:00,37.0,36.0,-100.00,SE,128,6.0,10.0,97,0.00,,,0.00,0.000000,,2013-05-04 09:11:00,
2013-05-04 05:42:00,36.0,36.0,-100.00,SE,133,5.0,10.0,100,0.00,,,0.00,0.000000,,2013-05-04 09:42:00,
2013-05-04 05:53:00,36.0,36.0,-100.00,SE,133,5.0,10.0,100,0.00,,,0.00,0.000000,,2013-05-04 09:53:00,
2013-05-04 06:03:00,36.0,36.0,-100.00,SE,133,5.0,10.0,100,0.00,,,0.00,0.000000,,2013-05-04 10:03:00,
2013-05-04 06:12:00,36.0,36.0,-100.00,SE,133,5.0,10.0,100,0.00,,,0.00,0.000000,,2013-05-04 10:12:00,
2013-05-04 06:33:00,36.0,36.0,-100.00,ESE,108,5.0,10.0,100,0.00,,,0.00,1.000000,,2013-05-04 10:33:00,
2013-05-04 06:42:00,36.0,36.0,-100.00,ESE,108,5.0,10.0,100,0.00,,,0.00,1.000000,,2013-05-04 10:42:00,
2013-05-04 06:53:00,36.0,36.0,-100.00,ESE,108,5.0,10.0,100,0.00,,,0.00,1.000000,,2013-05-04 10:53:00,
2013-05-04 07:02:00,36.0,36.0,-100.00,ESE,108,5.0,10.0,100,0.00,,,0.00,1.000000,,2013-05-04 11:02:00,
2013-05-04 07:11:00,36.0,36.0,-100.00,ESE,108,5.0,10.0,100,0.00,,,0.00,1.000000,,2013-05-04 11:11:00,
2013-05-04 07:32:00,36.0,36.0,-100.00,SE,145,6.0,9.0,100,0.00,,,0.00,28.000000,,2013-05-04 11:32:00,
2013-05-04 07:46:00,36.0,36.0,-100.00,SE,145,6.0,9.0,100,0.00,,,0.00,28.000000,,2013-05-04 11:46:00,
2013-05-04 08:03:00,36.0,36.0,-100.00,SE,145,6.0,9.0,100,0.00,,,0.00,28.000000,,2013-05-04 12:03:00,
2013-05-04 08:09:00,36.0,36.0,-100.00,SE,145,6.0,9.0,100,0.00,,,0.00,28.000000,,2013-05-04 12:09:00,
2013-05-04 08:42:00,39.0,39.0,-100.00,SE,126,5.0,8.0,100,0.00,,,0.00,115.000000,,2013-05-04 12:42:00,
2013-05-04 09:01:00,39.0,39.0,-100.00,SE,126,5.0,8.0,100,0.00,,,0.00,115.000000,,2013-05-04 13:01:00,
2013-05-04 09:11:00,39.0,39.0,-100.00,SE,126,5.0,8.0,100,0.00,,,0.00,115.000000,,2013-05-04 13:11:00,
2013-05-04 09:42:00,42.0,42.0,-100.00,SE,128,4.0,10.0,100,0.00,,,0.00,168.000000,,2013-05-04 13:42:00,
2013-05-04 09:53:00,42.0,42.0,-100.00,SE,128,4.0,10.0,100,0.00,,,0.00,168.000000,,2013-05-04 13:53:00,
2013-05-04 10:02:00,42.0,42.0,-100.00,SE,128,4.0,10.0,100,0.00,,,0.00,168.000000,,2013-05-04 14:02:00,
2013-05-04 10:11:00,42.0,42.0,-100.00,SE,128,4.0,10.0,100,0.00,,,0.00,168.000000,,2013-05-04 14:11:00,
2013-05-04 10:42:00,47.0,43.0,-100.00,SE,130,5.0,9.0,86,0.00,,,0.00,436.000000,,2013-05-04 14:42:00,
2013-05-04 10:52:00,47.0,43.0,-100.00,SE,130,5.0,9.0,86,0.00,,,0.00,436.000000,,2013-05-04 14:52:00,
2013-05-04 11:02:00,47.0,43.0,-100.00,SE,130,5.0,9.0,86,0.00,,,0.00,436.000000,,2013-05-04 15:02:00,
2013-05-04 11:12:00,47.0,43.0,-100.00,SE,130,5.0,9.0,86,0.00,,,0.00,436.000000,,2013-05-04 15:12:00,
2013-05-04 11:43:00,53.0,42.0,-100.00,SE,132,5.0,12.0,67,0.00,,,0.00,707.000000,,2013-05-04 15:43:00,
2013-05-04 11:53:00,53.0,42.0,-100.00,SE,132,5.0,12.0,67,0.00,,,0.00,707.000000,,2013-05-04 15:53:00,
2013-05-04 12:03:00,53.0,42.0,-100.00,SE,132,5.0,12.0,67,0.00,,,0.00,707.000000,,2013-05-04 16:03:00,
2013-05-04 12:12:00,53.0,42.0,-100.00,SE,132,5.0,12.0,67,0.00,,,0.00,707.000000,,2013-05-04 16:12:00,
2013-05-04 12:33:00,58.0,39.0,-100.00,ESE,118,5.0,10.0,50,0.00,,,0.00,812.000000,,2013-05-04 16:33:00,
2013-05-04 12:42:00,58.0,39.0,-100.00,ESE,118,5.0,10.0,50,0.00,,,0.00,812.000000,,2013-05-04 16:42:00,
2013-05-04 12:52:00,58.0,39.0,-100.00,ESE,118,5.0,10.0,50,0.00,,,0.00,812.000000,,2013-05-04 16:52:00,
2013-05-04 13:02:00,58.0,39.0,-100.00,ESE,118,5.0,10.0,50,0.00,,,0.00,812.000000,,2013-05-04 17:02:00,
2013-05-04 13:12:00,58.0,39.0,-100.00,ESE,118,5.0,10.0,50,0.00,,,0.00,812.000000,,2013-05-04 17:12:00,
2013-05-04 13:33:00,60.0,37.0,-100.00,ESE,111,7.0,12.0,43,0.00,,,0.00,873.000000,,2013-05-04 17:33:00,
2013-05-04 13:42:00,60.0,37.0,-100.00,ESE,111,7.0,12.0,43,0.00,,,0.00,873.000000,,2013-05-04 17:42:00,
2013-05-04 13:52:00,60.0,37.0,-100.00,ESE,111,7.0,12.0,43,0.00,,,0.00,873.000000,,2013-05-04 17:52:00,
2013-05-04 14:01:00,60.0,37.0,-100.00,ESE,111,7.0,12.0,43,0.00,,,0.00,873.000000,,2013-05-04 18:01:00,
2013-05-04 14:12:00,60.0,37.0,-100.00,ESE,111,7.0,12.0,43,0.00,,,0.00,873.000000,,2013-05-04 18:12:00,
2013-05-04 14:42:00,61.0,38.0,-100.00,ENE,69,6.0,18.0,42,0.00,,,0.00,846.000000,,2013-05-04 18:42:00,
2013-05-04 14:52:00,61.0,38.0,-100.00,ENE,69,6.0,18.0,42,0.00,,,0.00,846.000000,,2013-05-04 18:52:00,
2013-05-04 15:02:00,61.0,38.0,-100.00,ENE,69,6.0,18.0,42,0.00,,,0.00,846.000000,,2013-05-04 19:02:00,
2013-05-04 15:11:00,61.0,38.0,-100.00,ENE,69,6.0,18.0,42,0.00,,,0.00,846.000000,,2013-05-04 19:11:00,
2013-05-04 15:42:00,57.0,39.0,-100.00,ESE,110,6.0,14.0,50,0.00,,,0.00,572.000000,,2013-05-04 19:42:00,
2013-05-04 15:52:00,57.0,39.0,-100.00,ESE,110,6.0,14.0,50,0.00,,,0.00,572.000000,,2013-05-04 19:52:00,
2013-05-04 16:02:00,57.0,39.0,-100.00,ESE,110,6.0,14.0,50,0.00,,,0.00,572.000000,,2013-05-04 20:02:00,
2013-05-04 16:11:00,57.0,39.0,-100.00,ESE,110,6.0,14.0,50,0.00,,,0.00,572.000000,,2013-05-04 20:11:00,
2013-05-04 16:42:00,60.0,39.0,-100.00,East,99,6.0,13.0,46,0.00,,,0.00,591.000000,,2013-05-04 20:42:00,
2013-05-04 16:52:00,60.0,39.0,-100.00,East,99,6.0,13.0,46,0.00,,,0.00,591.000000,,2013-05-04 20:52:00,
2013-05-04 17:02:00,60.0,39.0,-100.00,East,99,6.0,13.0,46,0.00,,,0.00,591.000000,,2013-05-04 21:02:00,
2013-05-04 17:12:00,60.0,39.0,-100.00,East,99,6.0,13.0,46,0.00,,,0.00,591.000000,,2013-05-04 21:12:00,
2013-05-04 17:43:00,59.0,38.0,-100.00,ENE,73,5.0,14.0,45,0.00,,,0.00,464.000000,,2013-05-04 21:43:00,
2013-05-04 17:53:00,59.0,38.0,-100.00,ENE,73,5.0,14.0,45,0.00,,,0.00,464.000000,,2013-05-04 21:53:00,
2013-05-04 18:03:00,59.0,38.0,-100.00,ENE,73,5.0,14.0,45,0.00,,,0.00,464.000000,,2013-05-04 22:03:00,
2013-05-04 18:12:00,59.0,38.0,-100.00,ENE,73,5.0,14.0,45,0.00,,,0.00,464.000000,,2013-05-04 22:12:00,
2013-05-04 18:43:00,56.0,37.0,-100.00,NE,46,5.0,14.0,48,0.00,,,0.00,230.000000,,2013-05-04 22:43:00,
2013-05-04 18:52:00,56.0,37.0,-100.00,NE,46,5.0,14.0,48,0.00,,,0.00,230.000000,,2013-05-04 22:52:00,
2013-05-04 19:02:00,56.0,37.0,-100.00,NE,46,5.0,14.0,48,0.00,,,0.00,230.000000,,2013-05-04 23:02:00,
2013-05-04 19:12:00,56.0,37.0,-100.00,NE,46,5.0,14.0,48,0.00,,,0.00,230.000000,,2013-05-04 23:12:00,
2013-05-04 19:42:00,53.0,36.0,-100.00,North,6,4.0,12.0,52,0.00,,,-99.99,92.000000,,2013-05-04 23:42:00,
2013-05-04 19:52:00,53.0,36.0,-100.00,North,6,4.0,12.0,52,0.00,,,-99.99,92.000000,,2013-05-04 23:52:00,
2013-05-04 20:02:00,53.0,36.0,-100.00,North,6,4.0,12.0,52,0.00,,,-99.99,92.000000,,2013-05-05 00:02:00,
2013-05-04 20:11:00,53.0,36.0,-100.00,North,6,4.0,12.0,52,0.00,,,-99.99,92.000000,,2013-05-05 00:11:00,
2013-05-04 20:42:00,50.0,36.0,-100.00,ENE,70,4.0,12.0,59,0.00,,,0.00,25.000000,,2013-05-05 00:42:00,
2013-05-04 20:52:00,50.0,36.0,-100.00,ENE,70,4.0,12.0,59,0.00,,,0.00,25.000000,,2013-05-05 00:52:00,
2013-05-04 21:01:00,50.0,36.0,-100.00,ENE,70,4.0,12.0,59,0.00,,,0.00,25.000000,,2013-05-05 01:01:00,
2013-05-04 21:11:00,50.0,36.0,-100.00,ENE,70,4.0,12.0,59,0.00,,,0.00,25.000000,,2013-05-05 01:11:00,
2013-05-04 21:32:00,49.0,38.0,-100.00,NE,56,5.0,11.0,66,0.00,,,0.00,0.000000,,2013-05-05 01:32:00,
2013-05-04 21:42:00,49.0,38.0,-100.00,NE,56,5.0,11.0,66,0.00,,,0.00,0.000000,,2013-05-05 01:42:00,
2013-05-04 21:52:00,49.0,38.0,-100.00,NE,56,5.0,11.0,66,0.00,,,0.00,0.000000,,2013-05-05 01:52:00,
2013-05-04 22:02:00,49.0,38.0,-100.00,NE,56,5.0,11.0,66,0.00,,,0.00,0.000000,,2013-05-05 02:02:00,
2013-05-04 22:12:00,49.0,38.0,-100.00,NE,56,5.0,11.0,66,0.00,,,0.00,0.000000,,2013-05-05 02:12:00,
2013-05-04 22:42:00,47.0,38.0,-100.00,ENE,66,4.0,10.0,72,0.00,,,0.00,0.000000,,2013-05-05 02:42:00,
2013-05-04 22:52:00,47.0,38.0,-100.00,ENE,66,4.0,10.0,72,0.00,,,0.00,0.000000,,2013-05-05 02:52:00,
2013-05-04 23:01:00,47.0,38.0,-100.00,ENE,66,4.0,10.0,72,0.00,,,0.00,0.000000,,2013-05-05 03:01:00,
2013-05-04 23:11:00,47.0,38.0,-100.00,ENE,66,4.0,10.0,72,0.00,,,0.00,0.000000,,2013-05-05 03:11:00,
2013-05-04 23:42:00,45.0,39.0,-100.00,NE,51,4.0,11.0,79,0.00,,,0.00,0.000000,,2013-05-05 03:42:00,
2013-05-04 23:53:00,45.0,39.0,-100.00,NE,51,4.0,11.0,79,0.00,,,0.00,0.000000,,2013-05-05 03:53:00,